• In Austria
  • List of Countries
  • For 7 days
  • Water Temperature
  • Satellite Maps
  • Weather Map
  • News
  • Weather Widgets
  • user-avatar
    Login

    Hourly Weather Maidstone

    Today, 23 January, Tuesday

    Time Temperature Precipitation Wind Pressure Humidity
    00:00 +4°C° 0 mm 4 mps 762 mmHg 90%
    01:00 +5°C° 0 mm 4 mps 762 mmHg 90%
    02:00 +5°C° 0 mm 5 mps 762 mmHg 91%
    03:00 +5°C° 0 mm 5 mps 762 mmHg 92%
    04:00 +6°C° 0 mm 5 mps 762 mmHg 92%
    05:00 +5°C° 0 mm 6 mps 761 mmHg 92%
    06:00 +5°C° 0 mm 6 mps 761 mmHg 93%
    07:00 +6°C° 0.2 mm 7 mps 761 mmHg 92%
    08:00 +7°C° 0.2 mm 8 mps 761 mmHg 92%
    09:00 +7°C° 0.2 mm 9 mps 760 mmHg 92%
    10:00 +8°C° 0.1 mm 9 mps 760 mmHg 91%
    11:00 +10°C° 0.1 mm 9 mps 760 mmHg 91%
    12:00 +11°C° 0.1 mm 9 mps 760 mmHg 91%
    13:00 +11°C° 0.1 mm 9 mps 759 mmHg 90%
    14:00 +11°C° 0.1 mm 9 mps 759 mmHg 90%
    15:00 +11°C° 0.1 mm 8 mps 759 mmHg 89%
    16:00 +11°C° 0 mm 8 mps 759 mmHg 89%
    17:00 +11°C° 0 mm 8 mps 759 mmHg 89%
    18:00 +10°C° 0 mm 8 mps 759 mmHg 88%
    19:00 +11°C° 0.1 mm 8 mps 759 mmHg 89%
    20:00 +11°C° 0.1 mm 8 mps 759 mmHg 89%
    21:00 +11°C° 0.1 mm 8 mps 759 mmHg 89%
    22:00 +10°C° 0 mm 8 mps 759 mmHg 90%
    23:00 +10°C° 0 mm 7 mps 759 mmHg 90%

    Tomorrow, 24 January, Wednesday

    Time Temperature Precipitation Wind Pressure Humidity
    00:00 +9°C° 0 mm 7 mps 759 mmHg 91%
    01:00 +10°C° 0 mm 8 mps 758 mmHg 90%
    02:00 +10°C° 0 mm 8 mps 758 mmHg 89%
    03:00 +10°C° 0 mm 9 mps 757 mmHg 87%
    04:00 +11°C° 0 mm 10 mps 757 mmHg 87%
    05:00 +11°C° 0 mm 10 mps 756 mmHg 86%
    06:00 +11°C° 0 mm 11 mps 755 mmHg 86%
    07:00 +12°C° 0.1 mm 12 mps 754 mmHg 85%
    08:00 +12°C° 0.1 mm 13 mps 753 mmHg 84%
    09:00 +12°C° 0.1 mm 14 mps 753 mmHg 83%
    10:00 +12°C° 0.3 mm 14 mps 752 mmHg 83%
    11:00 +11°C° 0.3 mm 15 mps 752 mmHg 83%
    12:00 +11°C° 0.3 mm 15 mps 752 mmHg 82%
    13:00 +9°C° 1.6 mm 13 mps 752 mmHg 81%
    14:00 +8°C° 1.6 mm 10 mps 752 mmHg 79%
    15:00 +7°C° 1.6 mm 8 mps 753 mmHg 77%
    16:00 +6°C° 0.7 mm 8 mps 753 mmHg 77%
    17:00 +6°C° 0.7 mm 8 mps 753 mmHg 76%
    18:00 +6°C° 0.7 mm 8 mps 753 mmHg 76%
    19:00 +6°C° 0.1 mm 7 mps 754 mmHg 75%
    20:00 +6°C° 0.1 mm 7 mps 754 mmHg 74%
    21:00 +6°C° 0.1 mm 7 mps 754 mmHg 73%
    22:00 +5°C° 0 mm 7 mps 754 mmHg 74%
    23:00 +5°C° 0 mm 7 mps 754 mmHg 75%

    Day after tomorrow, 25 January, Thursday

    Time Temperature Precipitation Wind Pressure Humidity
    00:00 +5°C° 0 mm 7 mps 755 mmHg 77%
    01:00 +5°C° 0 mm 7 mps 755 mmHg 77%
    02:00 +5°C° 0 mm 7 mps 754 mmHg 77%
    03:00 +5°C° 0 mm 7 mps 754 mmHg 77%
    04:00 +5°C° 0 mm 7 mps 754 mmHg 77%
    05:00 +4°C° 0 mm 7 mps 754 mmHg 77%
    06:00 +4°C° 0 mm 7 mps 754 mmHg 77%
    07:00 +4°C° 0 mm 6 mps 754 mmHg 76%
    08:00 +4°C° 0 mm 6 mps 754 mmHg 74%
    09:00 +5°C° 0 mm 6 mps 754 mmHg 73%
    10:00 +5°C° 0 mm 7 mps 754 mmHg 69%
    11:00 +6°C° 0 mm 7 mps 754 mmHg 65%
    12:00 +7°C° 0 mm 8 mps 754 mmHg 61%
    13:00 +8°C° 0 mm 7 mps 754 mmHg 62%
    14:00 +8°C° 0 mm 7 mps 754 mmHg 63%
    15:00 +8°C° 0 mm 7 mps 753 mmHg 64%
    16:00 +6°C° 0.1 mm 7 mps 754 mmHg 66%
    17:00 +5°C° 0.1 mm 7 mps 754 mmHg 68%
    18:00 +5°C° 0.1 mm 7 mps 754 mmHg 71%
    19:00 +5°C° 0 mm 7 mps 755 mmHg 72%
    20:00 +4°C° 0 mm 7 mps 755 mmHg 73%
    21:00 +4°C° 0 mm 7 mps 755 mmHg 74%
    22:00 +4°C° 0 mm 7 mps 755 mmHg 76%
    23:00 +4°C° 0 mm 6 mps 756 mmHg 79%

    26 January, Friday

    Time Temperature Precipitation Wind Pressure Humidity
    00:00 +3°C° 0 mm 6 mps 756 mmHg 81%
    01:00 +3°C° 0 mm 6 mps 756 mmHg 82%
    02:00 +2°C° 0 mm 5 mps 756 mmHg 84%
    03:00 +2°C° 0 mm 5 mps 757 mmHg 85%
    04:00 +2°C° 0 mm 5 mps 757 mmHg 85%
    05:00 +2°C° 0 mm 5 mps 758 mmHg 85%
    06:00 +2°C° 0 mm 5 mps 758 mmHg 86%
    07:00 +2°C° 0 mm 5 mps 759 mmHg 85%
    08:00 +2°C° 0 mm 5 mps 759 mmHg 84%
    09:00 +2°C° 0 mm 5 mps 760 mmHg 83%
    10:00 +3°C° 0 mm 5 mps 761 mmHg 80%
    11:00 +4°C° 0 mm 6 mps 761 mmHg 76%
    12:00 +5°C° 0 mm 6 mps 762 mmHg 72%
    13:00 +5°C° 0 mm 6 mps 762 mmHg 72%
    14:00 +6°C° 0 mm 5 mps 762 mmHg 72%
    15:00 +6°C° 0 mm 5 mps 763 mmHg 72%
    16:00 +6°C° 0 mm 5 mps 763 mmHg 73%
    17:00 +5°C° 0 mm 5 mps 763 mmHg 75%
    18:00 +5°C° 0 mm 4 mps 764 mmHg 76%
    19:00 +5°C° 0 mm 4 mps 764 mmHg 78%
    20:00 +4°C° 0 mm 4 mps 765 mmHg 81%
    21:00 +4°C° 0 mm 4 mps 765 mmHg 84%
    22:00 +3°C° 0 mm 3 mps 766 mmHg 85%
    23:00 +3°C° 0 mm 3 mps 766 mmHg 87%

    27 January, Saturday

    Time Temperature Precipitation Wind Pressure Humidity
    00:00 +3°C° 0 mm 3 mps 766 mmHg 89%
    01:00 +3°C° 0 mm 3 mps 766 mmHg 89%
    02:00 +3°C° 0 mm 2 mps 766 mmHg 89%
    03:00 +3°C° 0 mm 2 mps 766 mmHg 89%
    04:00 +3°C° 0 mm 2 mps 766 mmHg 89%
    05:00 +3°C° 0 mm 2 mps 767 mmHg 88%
    06:00 +4°C° 0 mm 1 mps 767 mmHg 88%
    07:00 +3°C° 0 mm 2 mps 767 mmHg 86%
    08:00 +4°C° 0 mm 2 mps 767 mmHg 85%
    09:00 +3°C° 0 mm 3 mps 768 mmHg 83%
    10:00 +5°C° 0 mm 3 mps 768 mmHg 83%
    11:00 +6°C° 0 mm 4 mps 768 mmHg 82%
    12:00 +7°C° 0 mm 5 mps 768 mmHg 81%
    13:00 +7°C° 0 mm 5 mps 768 mmHg 82%
    14:00 +8°C° 0 mm 6 mps 768 mmHg 83%
    15:00 +8°C° 0 mm 6 mps 767 mmHg 84%
    16:00 +8°C° 0.1 mm 7 mps 767 mmHg 87%
    17:00 +8°C° 0.1 mm 7 mps 767 mmHg 89%
    18:00 +8°C° 0.1 mm 7 mps 767 mmHg 91%
    19:00 +8°C° 0.2 mm 7 mps 768 mmHg 93%
    20:00 +9°C° 0.2 mm 7 mps 768 mmHg 94%
    21:00 +9°C° 0.2 mm 7 mps 768 mmHg 95%
    22:00 +9°C° 0 mm 7 mps 768 mmHg 95%
    23:00 +9°C° 0 mm 6 mps 768 mmHg 94%

    28 January, Sunday

    Time Temperature Precipitation Wind Pressure Humidity
    00:00 +9°C° 0 mm 6 mps 768 mmHg 94%
    01:00 +9°C° 0 mm 6 mps 768 mmHg 94%
    02:00 +9°C° 0 mm 6 mps 768 mmHg 95%
    03:00 +9°C° 0 mm 5 mps 769 mmHg 95%
    04:00 +9°C° 0 mm 5 mps 769 mmHg 95%
    05:00 +9°C° 0 mm 5 mps 769 mmHg 95%
    06:00 +8°C° 0 mm 5 mps 770 mmHg 95%
    07:00 +8°C° 0 mm 5 mps 770 mmHg 95%
    08:00 +8°C° 0 mm 5 mps 771 mmHg 95%
    09:00 +8°C° 0 mm 5 mps 771 mmHg 95%
    10:00 +9°C° 0 mm 5 mps 771 mmHg 91%
    11:00 +10°C° 0 mm 5 mps 772 mmHg 88%
    12:00 +12°C° 0 mm 5 mps 772 mmHg 85%
    13:00 +13°C° 0 mm 5 mps 772 mmHg 84%
    14:00 +13°C° 0 mm 5 mps 772 mmHg 84%
    15:00 +13°C° 0 mm 5 mps 771 mmHg 84%
    16:00 +12°C° 0 mm 5 mps 772 mmHg 85%
    17:00 +12°C° 0 mm 5 mps 772 mmHg 86%
    18:00 +11°C° 0 mm 4 mps 772 mmHg 88%
    19:00 +11°C° 0 mm 4 mps 772 mmHg 89%
    20:00 +9°C° 0 mm 5 mps 772 mmHg 90%
    21:00 +9°C° 0 mm 5 mps 773 mmHg 92%
    22:00 +9°C° 0 mm 5 mps 773 mmHg 91%
    23:00 +8°C° 0 mm 5 mps 773 mmHg 90%
    Show more